Weather in Tokarevo

Russia / Altai Krai     52°03′50″N   81°13′15″E
temp.,
°C
wind,
m/s
gust,
m/s
humid.,
%
clouds,
%
prec.,
mm/h
press.,
hPa
HPBL,
m
23 january, sat
sat2301:00−24sw479887 0.0 1028131
04:00−26ssw499829 0.0 1030150
07:00−21sw5119565 0.1 1031386
10:00−19ssw61194100 0.0 1031409
13:00−17ssw6109299 0.1 1031479
16:00−15ssw61092100 0.0 1031555
19:00−15ssw51094100 0.2 1031433
22:00−15ssw4995100 0.3 1032347
24 january, sun
sun2401:00−14ssw4995100 0.5 1032343
04:00−15sw4895100 0.2 1032290
07:00−16wsw3597100 0.4 1032169
10:00−18wnw3697100 0.3 1035264
13:00−20wnw4694100 0.4 1037398
16:00−23wnw4695100 0.0 1040377
19:00−29wnw3496100 0.0 104390
22:00−31w3495100 0.0 104496
25 january, mon
mon2501:00−31w2395100 0.0 104573
04:00−32wsw229695 0.0 104623
07:00−32sw229797 0.0 104619
10:00−33sw229696 0.0 104819
13:00−29ssw239374 0.0 1047152
16:00−28s239434 0.0 1045103
19:00−29sse229567 0.0 104519
22:00−31ese239884 0.0 104419
26 january, tue
tue2601:00−31ese239947 0.0 104419
04:00−31ese339928 0.0 104320
07:00−29ese339657 0.0 104249
10:00−30e339577 0.0 104226
13:00−26e239448 0.0 1042105
16:00−25e23940 0.0 1042108
19:00−28e339411 0.0 104328
22:00−30e349729 0.0 104540
27 january, wed
wed2701:00−30e349834 0.0 104535
04:00−30e3410052 0.0 104642
07:00−30e3410073 0.0 104647
10:00−29ese34100100 0.0 104655
13:00−23se349999 0.0 1045104
16:00−20se349778 0.0 1044125
19:00−19sse359489 0.0 1043112
22:00−18s4890100 0.0 1042190